period_start,C,m1,H,J0,J1,J2,J3,J4,J5,JA,JB,JC,JD,JJ,JK,JN,#
2016-12-10 00:02:37,0.19,2.08,0.00,16.85,21.28,24.95,15.03,50.10,1019.53,2050.65,2791.56,2607.13,2950.03,600.53,610.97,16.80,0000 0000 0000 0000 000000
2016-12-10 00:07:38,0.19,2.09,0.00,16.83,21.27,24.94,14.90,49.92,1019.54,2050.84,2788.76,2605.01,2947.59,599.70,610.27,16.85,0000 0000 0000 0000 000000
2016-12-10 00:12:39,0.19,2.10,0.00,16.81,21.24,24.96,14.94,50.10,1019.55,2050.97,2785.94,2602.86,2945.16,599.87,610.33,16.90,0000 0000 0000 0000 000000
2016-12-10 00:17:41,0.18,2.11,0.00,16.82,21.23,24.93,14.97,50.03,1019.54,2050.98,2783.03,2600.63,2942.71,600.01,610.49,16.95,0000 0000 0000 0000 000000
2016-12-10 00:22:42,0.18,2.12,0.00,16.80,21.22,24.93,14.96,50.06,1019.54,2050.96,2780.16,2598.46,2940.24,600.02,610.60,17.00,0000 0000 0000 0000 000000
2016-12-10 00:27:43,0.18,2.13,0.00,16.77,21.22,24.92,14.94,49.99,1019.54,2050.98,2777.37,2596.29,2937.74,599.62,610.25,17.05,0000 0000 0000 0000 000000
2016-12-10 00:32:44,0.18,2.14,0.00,16.77,21.20,24.92,14.96,49.90,1019.55,2050.98,2774.56,2594.12,2935.27,600.02,610.63,17.10,0000 0000 0000 0000 000000
2016-12-10 00:37:45,0.18,2.15,0.00,16.79,21.19,24.92,14.99,49.80,1019.55,2050.98,2771.66,2591.92,2932.74,600.30,610.86,17.15,0000 0000 0000 0000 000000
2016-12-10 00:42:47,0.18,2.16,0.00,16.77,21.19,24.92,14.97,49.92,1019.55,2050.99,2768.86,2589.72,2930.30,600.02,610.61,17.20,0000 0000 0000 0000 000000
2016-12-10 00:47:48,0.17,2.17,0.00,16.76,21.17,24.97,14.96,49.98,1019.55,2050.99,2766.08,2587.61,2927.88,600.11,610.71,17.25,0000 0000 0000 0000 000000
2016-12-10 00:52:49,0.18,2.18,0.00,16.74,21.17,24.89,14.95,49.98,1019.55,2050.98,2763.28,2585.45,2925.38,600.03,610.60,17.30,0000 0000 0000 0000 000000
2016-12-10 00:57:50,0.18,2.18,0.00,16.77,21.16,24.93,14.99,50.11,1019.55,2050.99,2760.47,2583.27,2922.87,600.21,610.79,17.35,0000 0000 0000 0000 000000
2016-12-10 01:02:51,0.19,2.19,0.00,16.76,21.14,24.96,14.99,50.13,1019.55,2050.99,2757.52,2581.03,2920.31,600.05,610.68,17.40,0000 0000 0000 0000 000000
2016-12-10 01:07:53,0.19,2.20,0.00,16.75,21.14,24.91,14.97,50.15,1019.49,2050.99,2754.60,2578.74,2917.71,599.87,610.49,17.45,0000 0000 0000 0000 000000
2016-12-10 01:12:54,0.18,2.21,0.00,16.76,21.14,24.90,14.96,50.00,1019.52,2050.99,2751.75,2576.54,2915.24,599.79,610.35,17.50,0000 0000 0000 0000 000000
2016-12-10 01:17:55,0.19,2.22,0.00,16.76,21.12,24.89,14.98,50.29,1019.48,2050.99,2748.86,2574.25,2912.55,600.38,610.93,17.55,0000 0000 0000 0000 000000
2016-12-10 01:22:56,0.19,2.23,0.00,16.75,21.12,24.97,14.95,50.13,1019.22,2051.00,2745.87,2571.97,2909.95,599.97,610.46,17.60,0000 0000 0000 0000 000000
2016-12-10 01:27:58,0.20,2.24,0.00,16.75,21.12,24.94,14.94,50.23,1019.13,2051.00,2742.82,2569.54,2907.20,599.80,610.08,17.66,0000 0000 0000 0000 000000
2016-12-10 01:32:59,0.20,2.25,0.00,16.71,21.11,24.93,14.98,50.24,1019.24,2051.01,2739.70,2567.18,2904.45,599.85,610.23,17.71,0000 0000 0000 0000 000000
2016-12-10 01:38:01,0.19,2.26,0.00,16.72,21.10,24.92,15.01,50.30,1019.27,2051.01,2736.68,2564.82,2901.67,600.10,610.68,17.76,0000 0000 0000 0000 000000
2016-12-10 01:43:02,0.20,2.27,0.00,16.71,21.09,24.84,15.02,50.22,1019.15,2051.01,2733.64,2562.45,2899.04,600.17,610.56,17.81,0000 0000 0000 0000 000000
2016-12-10 01:48:03,0.20,2.28,0.00,16.71,21.09,24.85,14.90,50.01,1019.10,2051.01,2730.52,2560.09,2896.33,599.82,610.28,17.86,0000 0000 0000 0000 000000
2016-12-10 01:53:05,0.19,2.29,0.00,16.69,21.07,24.82,15.00,49.98,1019.08,2051.02,2727.51,2557.99,2893.65,600.63,611.09,17.91,0000 0000 0000 0000 000000
2016-12-10 01:58:06,0.20,2.30,0.00,16.69,21.07,24.81,15.02,49.93,1019.07,2051.03,2724.40,2555.63,2891.07,600.33,610.83,17.96,0000 0000 0000 0000 000000
2016-12-10 02:03:08,0.20,2.31,0.00,16.69,21.06,24.81,14.95,49.98,1019.08,2051.04,2721.37,2553.29,2888.37,599.86,610.25,18.01,0000 0000 0000 0000 000000
2016-12-10 02:08:09,0.20,2.32,0.00,16.67,21.05,24.86,14.95,50.02,1019.06,2051.04,2718.28,2550.93,2885.59,599.86,610.46,18.06,0000 0000 0000 0000 000000
2016-12-10 02:13:10,0.20,2.33,0.00,16.66,21.04,24.82,14.97,49.99,1019.07,2051.04,2715.18,2548.50,2882.84,600.26,610.81,18.11,0000 0000 0000 0000 000000
2016-12-10 02:18:12,0.22,2.35,0.00,16.67,21.04,24.86,14.98,49.92,1019.06,2051.01,2711.84,2545.90,2879.88,600.16,610.71,18.16,0000 0000 0000 0000 000000
2016-12-10 02:23:13,0.21,2.36,0.00,16.67,21.04,24.87,15.03,49.98,1019.06,2051.03,2708.55,2543.42,2877.15,600.02,610.64,18.21,0000 0000 0000 0000 000000
2016-12-10 02:28:15,0.22,2.37,0.00,16.70,21.04,24.92,14.94,49.91,1019.07,2051.03,2705.26,2540.81,2874.18,599.72,610.17,18.26,0000 0000 0000 0000 000000
2016-12-10 02:33:16,0.23,2.38,0.00,16.71,21.04,24.88,15.02,49.92,1019.09,2051.05,2701.86,2538.21,2871.18,600.52,611.01,18.31,0000 0000 0000 0000 000000
2016-12-10 02:38:17,0.23,2.39,0.00,16.71,21.04,24.87,14.99,50.03,1019.07,2051.03,2698.38,2535.45,2868.06,600.43,610.85,18.36,0000 0000 0000 0000 000000
2016-12-10 02:43:18,0.23,2.40,0.00,16.73,21.04,24.86,14.95,50.08,1019.10,2051.01,2694.89,2532.69,2864.87,599.73,610.14,18.41,0000 0000 0000 0000 000000
2016-12-10 02:48:19,0.25,2.42,0.00,16.75,21.04,25.00,14.96,49.94,1019.11,2051.01,2691.23,2529.83,2861.53,599.66,610.11,18.46,0000 0000 0000 0000 000000
2016-12-10 02:53:21,0.25,2.43,0.00,16.78,21.04,24.95,14.99,49.90,1019.08,2051.01,2687.59,2526.97,2858.27,599.88,610.25,18.51,0000 0000 0000 0000 000000
2016-12-10 02:58:22,0.24,2.44,0.00,16.81,21.04,25.01,14.94,49.79,1019.08,2051.00,2683.97,2524.09,2855.04,600.01,610.25,18.56,0000 0000 0000 0000 000000
2016-12-10 03:03:23,0.24,2.45,0.00,16.80,21.05,25.00,14.95,49.98,1019.06,2051.00,2680.31,2521.29,2851.83,600.00,610.14,18.61,0000 0000 0000 0000 000000
2016-12-10 03:08:24,0.25,2.47,0.00,16.81,21.05,24.95,14.90,49.95,1019.06,2051.00,2676.74,2518.47,2848.63,599.81,610.03,18.66,0000 0000 0000 0000 000000
2016-12-10 03:13:26,0.23,2.48,0.00,16.80,21.07,24.96,14.96,49.88,1019.11,2051.00,2673.28,2515.77,2845.50,600.15,610.38,18.71,0000 0000 0000 0000 000000
2016-12-10 03:18:27,0.24,2.49,0.00,16.80,21.07,24.95,15.01,50.15,1019.12,2051.00,2669.85,2513.08,2842.38,600.37,610.77,18.76,0000 0000 0000 0000 000000
2016-12-10 03:23:28,0.23,2.50,0.00,16.84,21.07,25.03,14.97,50.06,1019.10,2051.00,2666.37,2510.41,2839.33,599.97,610.25,18.81,0000 0000 0000 0000 000000
2016-12-10 03:28:29,0.24,2.51,0.00,16.81,21.07,25.04,14.93,50.12,1019.10,2051.00,2662.86,2507.61,2836.14,599.94,610.12,18.86,0000 0000 0000 0000 000000
2016-12-10 03:33:31,0.24,2.53,0.00,16.82,21.08,24.98,14.97,50.14,1019.23,2051.00,2659.30,2504.87,2833.00,599.86,610.15,18.91,0000 0000 0000 0000 000000
2016-12-10 03:38:32,0.24,2.54,0.00,16.85,21.09,25.02,14.99,50.06,1019.37,2051.00,2655.83,2502.16,2829.90,600.12,610.38,18.96,0000 0000 0000 0000 000000
2016-12-10 03:43:33,0.23,2.55,0.00,16.87,21.09,25.03,14.88,49.88,1019.14,2050.99,2652.35,2499.42,2826.77,599.75,609.97,19.01,0000 0000 0000 0000 000000
2016-12-10 03:48:35,0.24,2.56,0.00,16.88,21.10,25.05,14.92,49.95,1019.13,2050.98,2648.86,2496.73,2823.67,600.13,610.25,19.06,0000 0000 0000 0000 000000
2016-12-10 03:53:36,0.24,2.57,0.00,16.88,21.12,25.04,15.00,50.08,1019.23,2050.98,2645.29,2494.10,2820.52,600.38,610.57,19.11,0000 0000 0000 0000 000000
2016-12-10 03:58:37,0.24,2.59,0.00,16.87,21.12,25.06,14.94,50.13,1019.37,2050.98,2641.79,2491.37,2817.39,599.99,610.27,19.16,0000 0000 0000 0000 000000
2016-12-10 04:03:38,0.23,2.60,0.00,16.87,21.12,25.14,15.02,50.23,1019.48,2050.98,2638.47,2488.75,2814.44,600.01,610.41,19.21,0000 0000 0000 0000 000000
2016-12-10 04:08:40,0.24,2.61,0.00,16.85,21.14,25.13,14.90,50.02,1019.41,2050.98,2635.02,2486.07,2811.40,600.21,610.53,19.26,0000 0000 0000 0000 000000
2016-12-10 04:13:41,0.23,2.62,0.00,16.84,21.14,25.11,14.95,49.91,1019.48,2050.96,2631.64,2483.43,2808.38,599.78,610.18,19.31,0000 0000 0000 0000 000000
2016-12-10 04:18:42,0.24,2.63,0.00,16.85,21.14,25.10,14.98,49.84,1019.42,2050.93,2628.17,2480.77,2805.29,599.99,610.42,19.36,0000 0000 0000 0000 000000
2016-12-10 04:23:43,0.23,2.65,0.00,16.84,21.14,25.07,14.98,50.08,1019.38,2050.78,2624.69,2478.04,2802.19,600.28,610.60,19.41,0000 0000 0000 0000 000000
2016-12-10 04:28:44,0.24,2.66,0.00,16.84,21.14,25.09,14.95,50.06,1019.35,2050.78,2621.35,2475.37,2799.17,600.39,610.83,19.46,0000 0000 0000 0000 000000
2016-12-10 04:33:46,0.23,2.67,0.00,16.85,21.15,25.07,14.96,50.27,1019.16,2050.78,2618.02,2472.75,2796.15,599.98,610.17,19.51,0000 0000 0000 0000 000000
2016-12-10 04:38:47,0.22,2.68,0.00,16.87,21.17,25.11,15.00,50.17,1019.22,2050.63,2614.73,2470.15,2793.16,599.99,610.22,19.56,0000 0000 0000 0000 000000
2016-12-10 04:43:49,0.20,2.69,0.00,16.88,21.17,25.09,15.03,50.12,1019.09,2050.36,2611.39,2467.50,2790.17,600.09,609.95,19.61,0000 0000 0000 0000 000000
2016-12-10 04:48:50,0.21,2.70,0.00,16.89,21.17,25.10,14.95,50.17,1019.06,2050.16,2608.04,2464.90,2787.11,600.00,610.05,19.66,0000 0000 0000 0000 000000
2016-12-10 04:53:51,0.24,2.71,0.00,16.91,21.19,25.18,15.01,50.27,1019.06,2050.15,2604.62,2462.22,2784.11,600.14,610.13,19.71,0000 0000 0000 0000 000000
2016-12-10 04:58:53,0.23,2.73,0.00,16.89,21.19,25.18,14.98,50.20,1019.06,2050.16,2601.29,2459.60,2781.04,599.94,609.96,19.76,0000 0000 0000 0000 000000
2016-12-10 05:03:54,0.22,2.74,0.00,16.90,21.19,25.21,14.89,49.95,1019.06,2050.06,2598.03,2457.02,2778.13,599.65,609.68,19.81,0000 0000 0000 0000 000000
2016-12-10 05:08:56,0.23,2.75,0.00,16.88,21.19,25.17,14.98,50.00,1019.06,2050.04,2594.74,2454.44,2775.19,600.08,610.15,19.86,0000 0000 0000 0000 000000
2016-12-10 05:13:57,0.23,2.76,0.00,16.86,21.19,25.18,15.00,50.27,1019.06,2050.02,2591.28,2451.81,2772.21,600.02,610.09,19.91,0000 0000 0000 0000 000000
2016-12-10 05:18:58,0.23,2.78,0.00,16.88,21.19,25.19,15.01,50.27,1019.06,2050.03,2587.97,2449.22,2769.27,600.32,610.43,19.96,0000 0000 0000 0000 000000
2016-12-10 05:24:00,0.23,2.79,0.00,16.89,21.20,25.04,14.93,50.18,1019.06,2050.03,2584.68,2446.64,2766.38,599.90,609.93,20.01,0000 0000 0000 0000 000000
2016-12-10 05:29:01,0.24,2.80,0.00,16.89,21.20,25.17,14.99,50.21,1019.06,2050.02,2581.33,2444.01,2763.41,600.01,610.05,20.06,0000 0000 0000 0000 000000
2016-12-10 05:34:03,0.24,2.81,0.00,16.88,21.20,25.13,14.95,50.13,1019.06,2050.04,2578.02,2441.42,2760.43,600.34,610.38,20.11,0000 0000 0000 0000 000000
2016-12-10 05:39:04,0.23,2.82,0.00,16.88,21.20,25.16,14.95,50.15,1019.07,2050.03,2574.67,2438.86,2757.48,599.58,609.74,20.16,0000 0000 0000 0000 000000
2016-12-10 05:44:06,0.24,2.84,0.00,16.84,21.20,25.13,14.96,50.17,1019.07,2050.03,2571.35,2436.27,2754.55,600.35,610.51,20.21,0000 0000 0000 0000 000000
2016-12-10 05:49:07,0.22,2.85,0.00,16.86,21.20,25.13,14.97,50.20,1019.06,2050.02,2568.09,2433.71,2751.72,599.97,610.15,20.26,0000 0000 0000 0000 000000
2016-12-10 05:54:08,0.23,2.86,0.00,16.86,21.20,25.12,14.96,50.09,1019.12,2050.02,2564.91,2431.28,2749.02,599.90,610.16,20.31,0000 0000 0000 0000 000000
2016-12-10 05:59:10,0.23,2.87,0.00,16.86,21.21,25.16,14.97,50.12,1019.22,2050.01,2561.74,2428.83,2746.19,599.97,610.23,20.37,0000 0000 0000 0000 000000
2016-12-10 06:04:11,0.22,2.88,0.00,16.84,21.21,25.13,14.94,50.14,1019.16,2050.02,2558.74,2426.40,2743.42,600.08,610.30,20.42,0000 0000 0000 0000 000000
2016-12-10 06:09:13,0.22,2.89,0.00,16.82,21.21,25.17,15.01,50.03,1019.08,2050.04,2555.80,2424.08,2740.76,600.21,610.37,20.47,0000 0000 0000 0000 000000
2016-12-10 06:14:14,0.23,2.90,0.00,16.82,21.22,25.24,15.06,50.40,1019.09,2050.06,2552.68,2421.59,2738.02,599.98,610.09,20.52,0000 0000 0000 0000 000000
2016-12-10 06:19:15,0.24,2.92,0.00,16.87,21.22,25.21,14.99,50.08,1019.32,2050.01,2549.35,2419.05,2735.13,599.94,610.20,20.57,0000 0000 0000 0000 000000
2016-12-10 06:24:16,0.22,2.93,0.00,16.90,21.22,25.21,14.99,50.30,1019.32,2050.00,2546.13,2416.55,2732.30,600.11,610.29,20.62,0000 0000 0000 0000 000000
2016-12-10 06:29:17,0.23,2.94,0.00,16.86,21.22,25.20,14.95,50.23,1019.35,2050.01,2543.03,2414.13,2729.57,599.92,610.19,20.67,0000 0000 0000 0000 000000
2016-12-10 06:34:19,0.22,2.95,0.00,16.87,21.22,25.17,14.96,50.22,1019.39,2050.02,2539.95,2411.77,2726.89,599.92,610.29,20.72,0000 0000 0000 0000 000000
2016-12-10 06:39:20,0.22,2.96,0.00,16.86,21.22,25.19,14.99,50.22,1019.50,2050.01,2536.90,2409.36,2724.17,600.07,610.45,20.77,0000 0000 0000 0000 000000
2016-12-10 06:44:22,0.22,2.97,0.00,16.84,21.22,25.19,14.98,50.20,1019.38,2050.00,2533.81,2407.01,2721.49,600.04,610.34,20.82,0000 0000 0000 0000 000000
2016-12-10 06:49:23,0.22,2.99,0.00,16.83,21.22,25.19,14.94,50.28,1019.45,2050.00,2530.75,2404.60,2718.76,599.69,610.13,20.87,0000 0000 0000 0000 000000
2016-12-10 06:54:24,0.23,3.00,0.00,16.85,21.22,25.12,14.96,50.20,1019.51,2050.00,2527.64,2402.23,2716.06,600.20,610.54,20.92,0000 0000 0000 0000 000000
2016-12-10 06:59:25,0.22,3.01,0.00,16.82,21.22,25.16,14.94,50.23,1019.48,2050.02,2524.57,2399.90,2713.44,600.00,610.46,20.97,0000 0000 0000 0000 000000
2016-12-10 07:04:27,0.23,3.02,0.00,16.83,21.22,25.17,14.99,50.28,1019.52,2050.01,2521.43,2397.43,2710.71,600.11,610.53,21.02,0000 0000 0000 0000 000000
2016-12-10 07:09:28,0.23,3.03,0.00,16.83,21.22,25.13,14.98,50.35,1019.54,2050.01,2518.35,2395.06,2707.99,599.65,610.46,21.07,0000 0000 0000 0000 000000
2016-12-10 07:14:29,0.22,3.04,0.00,16.83,21.21,25.12,14.96,50.11,1019.55,2050.01,2515.29,2392.69,2705.30,600.14,610.53,21.12,0000 0000 0000 0000 000000
2016-12-10 07:19:31,0.22,3.05,0.00,16.82,21.20,25.05,14.99,50.07,1019.54,2050.01,2512.32,2390.29,2702.60,599.73,610.22,21.17,0000 0000 0000 0000 000000
2016-12-10 07:24:32,0.22,3.07,0.00,16.80,21.20,25.14,14.97,50.09,1019.52,2050.02,2509.34,2388.01,2700.00,599.89,610.46,21.22,0000 0000 0000 0000 000000
2016-12-10 07:29:33,0.22,3.08,0.00,16.80,21.19,25.11,14.92,50.34,1019.52,2050.01,2506.37,2385.67,2697.38,599.69,610.23,21.27,0000 0000 0000 0000 000000
2016-12-10 07:34:34,0.22,3.09,0.00,16.80,21.19,25.14,14.99,50.31,1019.54,2050.01,2503.40,2383.32,2694.68,599.91,610.42,21.32,0000 0000 0000 0000 000000
2016-12-10 07:39:35,0.22,3.10,0.00,16.84,21.19,25.09,14.98,50.32,1019.55,2050.00,2500.47,2381.04,2692.07,600.10,610.55,21.37,0000 0000 0000 0000 000000
2016-12-10 07:44:37,0.21,3.11,0.00,16.84,21.19,25.06,15.03,50.34,1019.55,2050.02,2497.65,2378.85,2689.55,600.30,610.69,21.42,0000 0000 0000 0000 000000
2016-12-10 07:49:38,0.21,3.12,0.00,16.81,21.19,25.10,15.00,50.26,1019.54,2050.02,2494.94,2376.57,2687.07,600.21,610.68,21.47,0000 0000 0000 0000 000000
2016-12-10 07:54:39,0.22,3.13,0.00,16.83,21.19,25.08,15.06,50.22,1019.50,2050.02,2492.00,2374.27,2684.46,600.24,610.65,21.52,0000 0000 0000 0000 000000
2016-12-10 07:59:41,0.22,3.14,0.00,16.82,21.19,25.12,14.96,50.31,1019.34,2050.02,2489.07,2372.01,2681.90,599.95,610.32,21.57,0000 0000 0000 0000 000000
2016-12-10 08:04:42,0.22,3.15,0.00,16.82,21.18,25.04,14.92,50.27,1019.26,2050.02,2486.13,2369.68,2679.31,599.91,610.21,21.62,0000 0000 0000 0000 000000
2016-12-10 08:09:43,0.21,3.17,0.00,16.85,21.17,24.98,14.95,50.16,1019.39,2050.04,2483.27,2367.48,2676.77,600.01,610.28,21.67,0000 0000 0000 0000 000000
2016-12-10 08:14:45,0.22,3.18,0.00,16.82,21.17,25.00,14.94,50.10,1019.35,2050.02,2480.40,2365.33,2674.20,600.11,610.48,21.72,0000 0000 0000 0000 000000
2016-12-10 08:19:46,0.21,3.19,0.00,16.81,21.17,25.03,14.99,50.22,1019.47,2050.01,2477.49,2363.15,2671.67,600.21,610.67,21.77,0000 0000 0000 0000 000000
2016-12-10 08:24:47,0.22,3.20,0.00,16.79,21.17,25.08,14.97,50.22,1019.37,2050.02,2474.73,2360.93,2669.21,599.85,610.25,21.82,0000 0000 0000 0000 000000
2016-12-10 08:29:48,0.21,3.21,0.00,16.82,21.17,25.08,14.94,50.20,1019.23,2050.01,2471.96,2358.69,2666.64,599.79,610.15,21.87,0000 0000 0000 0000 000000
2016-12-10 08:34:50,0.22,3.22,0.00,16.82,21.17,24.98,14.97,50.19,1019.33,2050.04,2469.14,2356.48,2664.16,599.93,610.24,21.92,0000 0000 0000 0000 000000
2016-12-10 08:39:51,0.22,3.23,0.00,16.85,21.17,25.04,14.97,50.17,1019.52,2050.03,2466.22,2354.21,2661.55,600.09,610.48,21.97,0000 0000 0000 0000 000000
2016-12-10 08:44:53,0.22,3.24,0.00,16.85,21.17,25.09,14.96,50.43,1019.50,2050.03,2463.43,2352.00,2659.04,599.61,610.04,22.02,0000 0000 0000 0000 000000
2016-12-10 08:49:54,0.22,3.25,0.00,16.84,21.19,25.11,15.02,50.32,1019.52,2050.02,2460.53,2349.78,2656.48,600.21,610.58,22.07,0000 0000 0000 0000 000000
2016-12-10 08:54:56,0.22,3.27,0.00,16.87,21.19,25.08,14.98,50.38,1019.50,2050.01,2457.67,2347.50,2653.87,600.18,610.54,22.12,0000 0000 0000 0000 000000
2016-12-10 08:59:57,0.22,3.28,0.00,16.88,21.19,25.11,15.01,50.30,1019.55,2050.01,2454.93,2345.29,2651.36,600.18,610.55,22.17,0000 0000 0000 0000 000000
2016-12-10 09:04:58,0.21,3.29,0.00,16.92,21.19,25.17,14.99,50.26,1019.51,2050.01,2452.08,2343.09,2648.88,600.08,610.37,22.22,0000 0000 0000 0000 000000
2016-12-10 09:09:59,0.22,3.30,0.00,16.90,21.21,25.16,14.91,50.27,1019.55,2050.01,2449.18,2340.86,2646.34,600.01,610.36,22.27,0000 0000 0000 0000 000000
2016-12-10 09:15:00,0.22,3.31,0.00,16.93,21.22,25.13,15.01,50.41,1019.55,2050.00,2446.23,2338.52,2643.75,600.01,610.27,22.32,0000 0000 0000 0000 000000
2016-12-10 09:20:02,0.22,3.32,0.00,16.92,21.22,25.15,14.96,50.35,1019.52,2050.00,2443.37,2336.26,2641.17,600.07,610.37,22.37,0000 0000 0000 0000 000000
2016-12-10 09:25:03,0.22,3.33,0.00,16.93,21.23,25.19,14.98,50.38,1019.54,2050.00,2440.50,2334.01,2638.65,599.92,610.10,22.42,0000 0000 0000 0000 000000
2016-12-10 09:30:05,0.22,3.34,0.00,16.96,21.24,25.18,14.90,50.33,1019.54,2049.99,2437.55,2331.66,2636.12,599.78,609.99,22.47,0000 0000 0000 0000 000000
2016-12-10 09:35:06,0.23,3.36,0.00,16.97,21.26,25.24,15.09,50.45,1019.55,2049.98,2434.56,2329.39,2633.51,600.22,610.41,22.52,0000 0000 0000 0000 000000
2016-12-10 09:40:07,0.21,3.37,0.00,17.02,21.27,25.25,14.96,50.36,1019.55,2049.98,2431.84,2327.15,2630.97,599.84,609.85,22.57,0000 0000 0000 0000 000000
2016-12-10 09:45:09,0.22,3.38,0.00,17.05,21.29,25.31,14.97,50.28,1019.56,2049.98,2429.21,2324.91,2628.37,599.93,609.92,22.62,0000 0000 0000 0000 000000
2016-12-10 09:50:10,0.21,3.39,0.00,17.06,21.31,25.29,15.00,50.39,1019.55,2049.98,2426.44,2322.69,2625.83,600.02,609.99,22.67,0000 0000 0000 0000 000000
2016-12-10 09:55:11,0.21,3.40,0.00,17.05,21.33,25.30,14.94,50.39,1019.64,2049.93,2423.61,2320.43,2623.27,599.70,609.76,22.72,0000 0000 0000 0000 000000
2016-12-10 10:00:13,0.17,3.41,0.00,17.08,21.34,25.31,14.96,50.42,1019.63,2049.62,2420.77,2318.13,2620.76,599.81,609.85,22.77,0000 0000 0000 0000 000000
2016-12-10 10:05:14,0.20,3.42,0.00,17.09,21.36,25.33,15.02,50.46,1019.62,2049.27,2417.99,2315.91,2618.21,600.04,609.99,22.82,0000 0000 0000 0000 000000
2016-12-10 10:10:15,0.19,3.43,0.00,17.11,21.37,25.41,14.92,50.32,1019.57,2049.08,2415.22,2313.67,2615.67,600.07,609.96,22.87,0000 0000 0000 0000 000000
2016-12-10 10:15:16,0.23,3.44,0.00,17.13,21.39,25.38,14.97,50.41,1019.56,2049.03,2412.31,2311.39,2613.09,600.04,609.84,22.92,0000 0000 0000 0000 000000
2016-12-10 10:20:18,0.23,3.45,0.00,17.14,21.39,25.43,14.99,50.48,1019.55,2049.00,2409.47,2309.11,2610.50,600.26,610.20,22.97,0000 0000 0000 0000 000000
2016-12-10 10:25:19,0.22,3.46,0.00,17.14,21.41,25.45,14.92,50.40,1019.56,2049.00,2406.62,2306.82,2607.95,599.85,609.62,23.02,0000 0000 0000 0000 000000
2016-12-10 10:30:20,0.22,3.48,0.00,17.14,21.42,25.46,14.98,50.36,1019.58,2049.00,2403.74,2304.56,2605.41,599.82,609.67,23.07,0000 0000 0000 0000 000000
2016-12-10 10:35:21,0.23,3.49,0.00,17.14,21.42,25.48,14.97,50.34,1019.57,2049.00,2400.80,2302.34,2602.83,599.98,609.83,23.12,0000 0000 0000 0000 000000
2016-12-10 10:40:22,0.24,3.50,0.00,17.12,21.44,25.41,14.99,50.35,1019.58,2048.99,2397.80,2300.11,2600.28,600.02,609.93,23.17,0000 0000 0000 0000 000000
2016-12-10 10:45:24,0.23,3.51,0.00,17.12,21.44,25.45,14.91,50.40,1019.58,2048.99,2394.95,2297.86,2597.72,599.89,609.79,23.22,0000 0000 0000 0000 000000
2016-12-10 10:50:25,0.23,3.52,0.00,17.16,21.45,25.44,14.93,50.41,1019.55,2048.99,2392.07,2295.60,2595.17,599.90,609.62,23.27,0000 0000 0000 0000 000000
2016-12-10 10:55:26,0.23,3.53,0.00,17.21,21.47,25.47,15.00,50.34,1019.55,2048.99,2389.14,2293.29,2592.56,600.17,609.86,23.32,0000 0000 0000 0000 000000
2016-12-10 11:00:27,0.24,3.55,0.00,17.18,21.48,25.50,14.93,50.36,1019.55,2048.98,2386.20,2290.96,2589.94,599.93,609.65,23.37,0000 0000 0000 0000 000000
2016-12-10 11:05:29,0.23,3.56,0.00,17.18,21.49,25.49,15.01,50.36,1019.55,2048.98,2383.28,2288.61,2587.24,599.99,609.75,23.42,0000 0000 0000 0000 000000
2016-12-10 11:10:30,0.22,3.57,0.00,17.22,21.52,25.52,15.01,50.32,1019.55,2048.96,2380.46,2286.33,2584.67,599.95,609.59,23.47,0000 0000 0000 0000 000000
2016-12-10 11:15:31,0.23,3.58,0.00,17.24,21.52,25.52,14.99,50.31,1019.55,2048.96,2377.64,2284.13,2582.15,600.00,609.56,23.52,0000 0000 0000 0000 000000
2016-12-10 11:20:33,0.21,3.59,0.00,17.27,21.54,25.51,14.88,50.35,1019.55,2048.86,2374.76,2281.83,2579.59,599.88,609.45,23.57,0000 0000 0000 0000 000000
2016-12-10 11:25:34,0.21,3.60,0.00,17.28,21.55,25.54,14.93,50.43,1019.55,2048.68,2371.93,2279.57,2577.10,599.88,609.34,23.62,0000 0000 0000 0000 000000
2016-12-10 11:30:35,0.22,3.61,0.00,17.28,21.57,25.60,14.96,50.39,1019.55,2048.50,2369.06,2277.32,2574.53,599.95,609.50,23.67,0000 0000 0000 0000 000000
2016-12-10 11:35:36,0.20,3.63,0.00,17.31,21.59,25.58,15.02,50.32,1019.55,2048.37,2366.34,2275.13,2572.02,600.33,609.80,23.72,0000 0000 0000 0000 000000
2016-12-10 11:40:37,0.22,3.63,0.00,17.34,21.60,25.60,14.98,50.43,1019.55,2048.04,2363.52,2272.75,2569.40,600.04,609.46,23.77,0000 0000 0000 0000 000000
2016-12-10 11:45:39,0.23,3.65,0.00,17.33,21.62,25.60,14.94,50.30,1019.55,2048.03,2360.76,2270.52,2566.86,599.68,609.11,23.83,0000 0000 0000 0000 000000
2016-12-10 11:50:40,0.22,3.66,0.00,17.34,21.64,25.62,15.00,50.33,1019.55,2048.03,2358.04,2268.32,2564.34,600.05,609.58,23.88,0000 0000 0000 0000 000000
2016-12-10 11:55:41,0.23,3.67,0.00,17.36,21.66,25.62,14.98,50.52,1019.54,2048.01,2355.35,2266.14,2561.86,600.05,609.35,23.93,0000 0000 0000 0000 000000
2016-12-10 12:00:43,0.22,3.68,0.00,17.38,21.67,25.67,14.91,50.49,1019.55,2048.00,2352.65,2264.02,2559.45,599.83,609.08,23.98,0000 0000 0000 0000 000000
2016-12-10 12:05:44,0.22,3.69,0.00,17.39,21.69,25.67,14.99,50.28,1019.54,2047.99,2350.01,2261.87,2557.19,599.96,609.25,24.03,0000 0000 0000 0000 000000
2016-12-10 12:10:45,0.22,3.70,0.00,17.41,21.70,25.73,14.89,50.39,1019.49,2047.97,2347.21,2259.63,2554.72,599.68,608.96,24.08,0000 0000 0000 0000 000000
2016-12-10 12:15:46,0.22,3.71,0.00,17.41,21.72,25.68,14.99,50.32,1019.38,2047.96,2344.44,2257.48,2552.27,600.33,609.48,24.13,0000 0000 0000 0000 000000
2016-12-10 12:20:48,0.21,3.73,0.00,17.45,21.73,25.77,14.91,50.32,1019.17,2047.91,2341.71,2255.32,2549.83,599.99,609.06,24.18,0000 0000 0000 0000 000000
2016-12-10 12:25:49,0.23,3.74,0.00,17.45,21.74,25.79,14.89,50.35,1019.08,2047.84,2338.96,2253.13,2547.41,600.13,608.96,24.23,0000 0000 0000 0000 000000
2016-12-10 12:30:50,0.21,3.75,0.00,17.50,21.75,25.75,14.89,50.48,1019.07,2047.68,2336.22,2250.96,2544.96,599.89,608.61,24.28,0000 0000 0000 0000 000000
2016-12-10 12:35:51,0.19,3.76,0.00,17.50,21.77,25.76,14.86,50.34,1019.10,2047.40,2333.33,2248.78,2542.56,599.88,608.66,24.33,0000 0000 0000 0000 000000
2016-12-10 12:40:53,0.20,3.77,0.00,17.49,21.78,25.76,14.94,50.37,1019.13,2047.24,2330.63,2246.64,2540.17,600.02,608.75,24.38,0000 0000 0000 0000 000000
2016-12-10 12:45:54,0.21,3.78,0.00,17.51,21.79,25.76,14.99,50.43,1019.19,2047.12,2327.96,2244.53,2537.76,600.11,608.93,24.43,0000 0000 0000 0000 000000
2016-12-10 12:50:55,0.22,3.79,0.00,17.53,21.81,25.82,14.98,50.45,1019.10,2047.10,2325.38,2242.45,2535.40,600.34,609.07,24.48,0000 0000 0000 0000 000000
2016-12-10 12:55:56,0.22,3.80,0.00,17.54,21.83,25.81,14.94,50.45,1019.15,2047.04,2322.69,2240.34,2533.00,600.15,608.90,24.53,0000 0000 0000 0000 000000